Weather History for KHNB - February, 2013

Change the Weather History Date:

Tuesday, February 19, 2013

  Actual Average Record
Temperature  
Mean Temperature 35 °F -  
Max Temperature 46 °F 44 °F 62 °F (2004)
Min Temperature 24 °F 29 °F -7 °F (2015)
Degree Days  
Heating Degree Days 30    
Moisture  
Dew Point 22 °F    
Average Humidity 67    
Maximum Humidity 87    
Minimum Humidity 52    
Precipitation  
Precipitation 0.00 in - - ()
Sea Level Pressure  
Sea Level Pressure 30.04 in    
Wind  
Wind Speed 20 mph (WNW)    
Max Wind Speed 32 mph    
Max Gust Speed 39 mph    
Visibility 10 miles    
Events      
Averages and records for this station are not official NWS values.
T = Trace of Precipitation, MM = Missing Value Source: NWS Daily Summary

Daily Weather History Graph

Daily Weather History Graph

Search for Another Location

Airport or City:

Trip Planner

Search our weather history database for the weather conditions in past years. The results will help you decide how hot, cold, wet, or windy it might be!

Date:

Astronomy

Feb. 19, 2013 Rise Set
Actual Time 7:32 AM EST 6:30 PM EST
Civil Twilight 7:06 AM EST 6:57 PM EST
Nautical Twilight 6:35 AM EST 7:28 PM EST
Astronomical Twilight 6:04 AM EST 7:59 PM EST
Moon 1:04 PM EST (2/19) 3:01 AM EST (2/19)
Length of Visible Light 11h 51m
Length of Day
10h 58m
Waxing Gibbous, 67% of the Moon is Illuminated
Feb 19
Waxing Gibbous
Feb 25
Full
Mar 4
Last Quarter
Mar 11
New
Mar 19
First Quarter

Hourly Weather History & Observations

Time (EST) Temp. Windchill Dew Point Humidity Pressure Visibility Wind Dir Wind Speed Gust Speed Precip Events Conditions
12:15 AM 46.4 °F 39.0 °F 42.8 °F 87% 29.72 in 7.0 mi South 19.6 mph 27.6 mph N/A   Overcast
1:35 AM 41.0 °F 29.5 °F 35.6 °F 81% 29.80 in 10.0 mi West 32.2 mph 39.1 mph N/A   Overcast
1:55 AM 39.2 °F 28.7 °F 33.8 °F 81% 29.81 in 9.0 mi WNW 23.0 mph 33.4 mph N/A   Overcast
2:15 AM 39.2 °F 30.5 °F 33.8 °F 81% 29.83 in 10.0 mi WNW 16.1 mph 25.3 mph N/A   Overcast
2:35 AM 37.4 °F 27.8 °F 33.8 °F 87% 29.83 in 10.0 mi WNW 17.3 mph 24.2 mph N/A   Overcast
2:55 AM 37.4 °F 28.2 °F 33.8 °F 87% 29.84 in 10.0 mi WNW 16.1 mph 24.2 mph N/A   Overcast
3:15 AM 37.4 °F 28.9 °F 33.8 °F 87% 29.85 in 10.0 mi WNW 13.8 mph - N/A   Overcast
3:35 AM 37.4 °F 26.6 °F 33.8 °F 87% 29.86 in 10.0 mi West 21.9 mph 27.6 mph N/A   Overcast
3:55 AM 37.4 °F 26.4 °F 30.2 °F 75% 29.87 in 10.0 mi West 23.0 mph 28.8 mph N/A   Overcast
4:15 AM 35.6 °F 26.2 °F 30.2 °F 81% 29.88 in 10.0 mi West 15.0 mph 26.5 mph N/A   Overcast
4:35 AM 35.6 °F 24.5 °F 28.4 °F 75% 29.89 in 10.0 mi WNW 20.7 mph 26.5 mph N/A   Overcast
4:55 AM 35.6 °F 22.7 °F 28.4 °F 75% 29.91 in 10.0 mi West 28.8 mph 32.2 mph N/A   Overcast
5:15 AM 33.8 °F 21.6 °F 24.8 °F 70% 29.92 in 10.0 mi West 23.0 mph 28.8 mph N/A   Overcast
5:35 AM 33.8 °F 21.3 °F 23.0 °F 65% 29.93 in 10.0 mi West 24.2 mph 29.9 mph N/A   Overcast
5:55 AM 33.8 °F 23.9 °F 24.8 °F 70% 29.92 in 10.0 mi West 15.0 mph 24.2 mph N/A   Overcast
6:55 AM 33.8 °F 22.2 °F 24.8 °F 70% 29.94 in 10.0 mi West 20.7 mph 29.9 mph N/A   Overcast
7:15 AM 32.0 °F 19.5 °F 23.0 °F 69% 29.95 in 10.0 mi West 21.9 mph 26.5 mph N/A   Overcast
7:35 AM 32.0 °F 21.2 °F 21.2 °F 64% 29.96 in 10.0 mi West 16.1 mph 28.8 mph N/A   Overcast
7:56 AM 30.2 °F 19.3 °F 23.0 °F 75% 29.97 in 10.0 mi West 15.0 mph - N/A   Overcast
8:15 AM 30.2 °F 18.9 °F 23.0 °F 75% 29.98 in 10.0 mi West 16.1 mph 25.3 mph N/A   Overcast
8:35 AM 30.2 °F 17.8 °F 21.2 °F 69% 29.99 in 10.0 mi West 19.6 mph 28.8 mph N/A   Overcast
8:55 AM 30.2 °F 18.9 °F 21.2 °F 69% 30.00 in 10.0 mi West 16.1 mph 26.5 mph N/A   Overcast
9:15 AM 30.2 °F 17.4 °F 21.2 °F 69% 30.01 in 10.0 mi West 20.7 mph 28.8 mph N/A   Overcast
9:35 AM 30.2 °F 18.5 °F 21.2 °F 69% 30.02 in 10.0 mi West 17.3 mph 21.9 mph N/A   Overcast
9:55 AM 30.2 °F 16.5 °F 21.2 °F 69% 30.03 in 10.0 mi West 24.2 mph 29.9 mph N/A   Overcast
10:15 AM 32.0 °F 19.8 °F 21.2 °F 64% 30.03 in 10.0 mi West 20.7 mph 31.1 mph N/A   Overcast
10:35 AM 32.0 °F 19.2 °F 21.2 °F 64% 30.03 in 10.0 mi West 23.0 mph 29.9 mph N/A   Overcast
10:55 AM 32.0 °F 20.1 °F 21.2 °F 64% 30.04 in 10.0 mi West 19.6 mph 25.3 mph N/A   Overcast
11:15 AM 32.0 °F 19.5 °F 21.2 °F 64% 30.05 in 10.0 mi West 21.9 mph 29.9 mph N/A   Mostly Cloudy
12:15 PM 35.6 °F 24.2 °F 23.0 °F 60% 30.06 in 10.0 mi West 21.9 mph 28.8 mph N/A   Overcast
12:35 PM 35.6 °F 24.2 °F 21.2 °F 56% 30.06 in 10.0 mi West 21.9 mph 27.6 mph N/A   Overcast
1:15 PM 33.8 °F 21.3 °F 23.0 °F 65% 30.07 in 10.0 mi West 24.2 mph 31.1 mph N/A   Overcast
1:55 PM 35.6 °F 24.0 °F 21.2 °F 56% 30.07 in 10.0 mi West 23.0 mph 31.1 mph N/A   Mostly Cloudy
2:15 PM 35.6 °F 23.0 °F 23.0 °F 60% 30.07 in 10.0 mi West 27.6 mph 35.7 mph N/A   Overcast
2:35 PM 33.8 °F 22.5 °F 19.4 °F 56% 30.09 in 10.0 mi West 19.6 mph 32.2 mph N/A   Scattered Clouds
2:55 PM 35.6 °F 24.2 °F 21.2 °F 56% 30.09 in 10.0 mi West 21.9 mph 29.9 mph N/A   Scattered Clouds
3:15 PM 33.8 °F 22.5 °F 19.4 °F 56% 30.09 in 10.0 mi West 19.6 mph 32.2 mph N/A   Clear
3:35 PM 35.6 °F 24.5 °F 21.2 °F 56% 30.10 in 10.0 mi West 20.7 mph 27.6 mph N/A   Mostly Cloudy
3:55 PM 33.8 °F 22.2 °F 19.4 °F 56% 30.11 in 10.0 mi WNW 20.7 mph 27.6 mph N/A   Partly Cloudy
4:15 PM 33.8 °F 22.8 °F 19.4 °F 56% 30.12 in 10.0 mi West 18.4 mph - N/A   Clear
4:35 PM 35.6 °F 24.2 °F 21.2 °F 56% 30.12 in 10.0 mi West 21.9 mph - N/A   Partly Cloudy
4:55 PM 33.8 °F 21.6 °F 19.4 °F 56% 30.13 in 10.0 mi West 23.0 mph 27.6 mph N/A   Partly Cloudy
5:15 PM 33.8 °F 22.2 °F 17.6 °F 52% 30.14 in 10.0 mi West 20.7 mph 25.3 mph N/A   Clear
5:35 PM 33.8 °F 23.2 °F 19.4 °F 56% 30.14 in 10.0 mi West 17.3 mph 25.3 mph N/A   Clear
5:55 PM 33.8 °F 21.6 °F 17.6 °F 52% 30.15 in 10.0 mi West 23.0 mph 28.8 mph N/A   Clear
6:15 PM 32.0 °F 19.8 °F 17.6 °F 55% 30.15 in 10.0 mi WNW 20.7 mph 26.5 mph N/A   Clear
7:35 PM 30.2 °F 20.8 °F 15.8 °F 55% 30.18 in 10.0 mi NW 11.5 mph 19.6 mph N/A   Clear
7:55 PM 28.4 °F 19.1 °F 17.6 °F 64% 30.19 in 10.0 mi NW 10.4 mph 19.6 mph N/A   Clear
8:15 PM 28.4 °F 18.0 °F 17.6 °F 64% 30.20 in 10.0 mi NW 12.7 mph - N/A   Clear
8:35 PM 26.6 °F 16.8 °F 17.6 °F 69% 30.20 in 10.0 mi NW 10.4 mph - N/A   Clear
8:55 PM 26.6 °F 15.7 °F 17.6 °F 69% 30.20 in 10.0 mi NNW 12.7 mph - N/A   Clear
9:15 PM 26.6 °F 16.2 °F 15.8 °F 64% 30.21 in 10.0 mi NW 11.5 mph 16.1 mph N/A   Clear
9:35 PM 24.8 °F 13.4 °F 15.8 °F 69% 30.21 in 10.0 mi NW 12.7 mph - N/A   Clear
9:55 PM 24.8 °F 14.0 °F 15.8 °F 69% 30.22 in 10.0 mi NW 11.5 mph 17.3 mph N/A   Clear
10:15 PM 24.8 °F 16.1 °F 14.0 °F 64% 30.22 in 10.0 mi NW 8.1 mph - N/A   Clear
10:35 PM 24.8 °F 14.0 °F 14.0 °F 64% 30.23 in 10.0 mi NW 11.5 mph - N/A   Clear
11:15 PM 24.8 °F 14.6 °F 14.0 °F 64% 30.24 in 10.0 mi WNW 10.4 mph - N/A   Clear
11:35 PM 24.8 °F 14.6 °F 14.0 °F 64% 30.24 in 10.0 mi NW 10.4 mph - N/A   Clear
11:55 PM 24.8 °F 14.6 °F 14.0 °F 64% 30.24 in 10.0 mi WNW 10.4 mph - N/A   Clear